Weather in Terskol

Russia / The Kabardino-Balkar Republic     43Β°15β€²21β€³N   42Β°30β€²46β€³E
temp.,
Β°C
wind,
m/s
gust,
m/s
humid.,
%
clouds,
%
prec.,
mm/h
press.,
hPa
HPBL,
m
22 may, sun
sun2200:00βˆ’5w12780 0.0 101912
03:00βˆ’5wsw12700 0.0 101813
06:00βˆ’3sw12690 0.0 101625
09:00+2ssw44771 0.0 1013265
12:00+4ssw45682 0.0 1011900
15:00+6ssw58535 0.0 10091841
18:00+3ssw45620 0.0 1009340
21:00βˆ’2ssw336484 0.0 101020
23 may, mon
mon2300:00βˆ’1ssw336678 0.0 100937
03:00βˆ’3ssw448286 0.1 100950
06:00βˆ’2s339898 0.1 1008139
09:000s448781 0.2 1006474
12:00+4s446989 0.3 10021105
15:00+2ssw3394100 2.4 1002668
18:000wsw2298100 1.8 1003288
21:00βˆ’1wsw2298100 4.0 1005331
24 may, tue
tue2400:00βˆ’2sw2299100 4.1 1005229
03:00βˆ’3sw2399100 7.4 1005149
06:00βˆ’4sw22100100 1.7 1008141
09:00βˆ’3sw3397100 2.1 1008426
12:00βˆ’2ssw3396100 1.0 1008605
15:00βˆ’2sw4499100 5.2 1008282
18:00βˆ’4sw3398100 2.4 1013264
21:00βˆ’5sw2295100 2.9 1016222
25 may, wed
wed2500:00βˆ’6sw2291100 0.1 1017100
03:00βˆ’6sw229397 0.3 101877
06:00βˆ’7sw229670 0.1 1020161
09:00βˆ’4sw3287100 0.2 1019644
12:00βˆ’3sw3288100 0.6 1018663
15:00βˆ’2sw2292100 2.2 1018419
18:00βˆ’2sw229599 2.2 1020334
21:00βˆ’4ssw229799 3.5 1023113
26 may, thu
thu2600:00βˆ’6ssw119684 0.3 102457
03:00βˆ’8nne019571 0.3 102711
06:00βˆ’7nne119141 0.0 102655
09:00βˆ’3sw116124 0.0 1021612
12:00+1sw326527 0.0 10201001
15:00+3sw226154 0.0 10201205
18:00+2ssw3373100 0.0 1020693
21:00βˆ’1ssw339890 0.1 1022223